Flag for Germany Weather past 2 weeks in Schönebeck, Saxony-Anhalt, Germany

Now
63 °F

Overcast.


Feels Like: 63 °F
Forecast: 52 / 56 °F
Wind: 2 mph from Northwest

Location: Magdeburg

Current Time: Sep 21, 2014 at 6:41:20 PM

Latest Report: Sep 21, 2014 at 6:00 PM


Visibility: 28 mi

Pressure: 29.89 "Hg

Humidity: 72%

Dew point: 53 °F

Location of SchönebeckLocation

Historic Weather in Schönebeck — Graph

°F

Schönebeck temperature yesterday

Maximum temperature yesterday: 71 °F (at 2:00 PM)
Minimum temperature yesterday: 61 °F (at 3:00 AM)
Average temperature yesterday: 64 °F

Past Weeks' High & Low Weather Summary

 TemperatureHumidityPressure
High77 °F (Sep 17, 5:00 PM)98% (Sep 7, 3:00 AM)30.19 "Hg (Sep 7, 3:00 AM)
Low52 °F (Sep 9, 4:00 AM)43% (Sep 17, 6:00 PM)29.85 "Hg (Sep 6, 6:00 PM)
Average63 °F85%30.02 "Hg
* Reported Sep 6 6:00 PM — Sep 21 5:00 PM, Schönebeck, Weather by CustomWeather, © 2014

Note: Actual official high and low records may vary slightly from our data, if they occured in-between our weather recording intervals... More about our weather records

Advertising

Schönebeck weather history for previous 24 hours

 ConditionsComfort  
Time TempWeatherWind HumidityBarometerVisibility
5:00 PM
Sep 21
64 °FOvercast.2 mph68%29.89 "Hg28 mi
4:00 PM64 °FOvercast.3 mph70%29.89 "Hg28 mi
3:00 PM62 °FOvercast.3 mph82%29.90 "Hg19 mi
2:00 PM64 °FOvercast.2 mph79%29.90 "Hg12 mi
1:00 PM65 °FOvercast.3 mph75%29.90 "Hg7 mi
12:00 PM64 °FSprinkles. Overcast.2 mph84%29.90 "Hg6 mi
10:00 AM62 °FFog.2 mph89%29.90 "Hg3 mi
9:00 AM61 °FLow clouds.1 mph94%29.89 "Hg2 mi
8:00 AM62 °FLight rain. Overcast.3 mph92%29.89 "Hg2 mi
7:00 AM62 °FFog.1 mph95%29.88 "Hg1 mi
6:00 AM62 °FFog.1 mph96%29.88 "Hg1 mi
4:00 AM60 °FPassing clouds.2 mph98%29.89 "Hg1 mi
3:00 AM59 °FClear.1 mph98%29.90 "Hg1 mi
2:00 AM60 °FFog.1 mph97%29.91 "Hg1 mi
1:00 AM61 °FFog.1 mph96%29.91 "Hg1 mi
12:00 AM64 °FFog.1 mph94%29.90 "Hg2 mi
10:00 PM
Sep 20
64 °FFog.1 mph96%29.91 "Hg1 mi
9:00 PM65 °FFog.1 mph95%29.91 "Hg2 mi
8:00 PM65 °FOvercast.1 mph93%29.90 "Hg2 mi
Weather by CustomWeather, © 2014

See weather overviewHow to use our weather pages